Location: Maiden
(35.5760°N, 81.2120°W)
Time: 14:37:39
(UTC-04:00)

Cosmos 158 Rocket - Pass Details

Date: 14 June 2018
Orbit: 698 x 794 km, 74.0° (Epoch: 18 October)

Event Time Altitude Azimuth Distance (km) Brightness Sun altitude
Exits shadow 22:55:55 13° 210° (SSW) 2,163 6.1 -21.3°
Maximum altitude 23:00:42 60° 289° (WNW) 891 4.5 -21.9°
Drops below altitude 10° 23:05:56 10° 10° (N) 2,319 7.1 -22.5°
Sets 23:08:19 0° 14° (NNE) 3,235 7.8 -22.8°
